Hundvaag 1 weather for Aug 1998
Month no. 134
Obs.
Da.
Temp. Dew Point Precip. Wind
Speed
Wind gusts Cloud cover Press. Humidity Wind dir. Sunny OPT
01.08.1998 13,6   0,0     1       1  
02.08.1998 14,0   0,0     0          
03.08.1998 11,0   0,0     1       1  
04.08.1998 12,3   14,0     0       1  
05.08.1998 12,3   15,0     0          
06.08.1998 12,8   5,0     0          
07.08.1998 12,9   1,0     2       1  
08.08.1998 12,3   0,0     1          
09.08.1998 14,7   2,0     10          
10.08.1998 9,5   0,0     7       1  
11.08.1998 11,9   1,0     1       1  
12.08.1998 12,6   0,0     0          
13.08.1998 13,9   19,0     0       1  
14.08.1998 13,6   3,0     2          
15.08.1998 14,6   8,0     3       1  
16.08.1998 14,5   2,0     1          
17.08.1998 13,4   4,0     0          
18.08.1998 11,4   26,0     0       1  
19.08.1998 11,4   2,0     7       1  
20.08.1998 13,7   5,0     0          
21.08.1998 11,8   23,0     0       1  
22.08.1998 13,6   8,0     4       1  
23.08.1998 11,6   0,0     3       1  
24.08.1998 10,8   0,0     6       1  
25.08.1998 9,8   0,0     2       1  
26.08.1998 9,6   2,0     8       1  
27.08.1998 9,7   0,0     8       1  
28.08.1998 10,6   0,0     9       1  
29.08.1998 11,4   0,0     0       1  
30.08.1998 10,6   0,0     0       1  
31.08.1998 9,7   0,0     10       1  
Avrg/Sum 12,1   140,0     2,8       21